Home > Weather > Rosenheim > Past weeks

Flag for Germany Past Weather in Rosenheim, Bavaria, Germany — Yesterday and Last 2 Weeks

Now
82 °F

Passing clouds.


Feels Like: 84 °F
Forecast: 62 / 75 °F
Wind: 6 mph from South

Location: Munich / Franz Josef Strauss Airport

Current Time: Aug 28, 2016 at 2:24:11 PM

Latest Report: Aug 28, 2016 at 1:50 PM


Visibility: N/A

Pressure: 30.07 "Hg

Humidity: 55%

Dew Point: 64 °F

Location of RosenheimLocation

Past Weather in Rosenheim — Graph

°F

Rosenheim Temperature Yesterday

Maximum temperature yesterday: 84 °F (at 2:50 PM)
Minimum temperature yesterday: 54 °F (at 4:50 AM)
Average temperature yesterday: 69 °F

High & Low Weather Summary for the Past Weeks

 TemperatureHumidityPressure
High84 °F (Aug 26, 2:50 PM)100% (Aug 13, 11:20 PM)30.42 "Hg (Aug 13, 11:20 PM)
Low50 °F (Aug 16, 5:50 AM)30% (Aug 25, 4:50 PM)29.83 "Hg (Aug 18, 12:50 PM)
Average66 °F75%30.12 "Hg
* Reported Aug 13 12:20 PM — Aug 28 12:50 PM, Rosenheim, Weather by CustomWeather, © 2016

Note: Actual official high and low records may vary slightly from our data, if they occured in-between our weather recording intervals... More about our weather records

Advertising

Rosenheim Weather History for the Previous 24 Hours

Scroll right to see more
 ConditionsComfort  
Time TempWeatherWind HumidityBarometerVisibility
12:50 PM
Sun, Aug 28
84 °FPassing clouds.7 mph45%30.09 "HgN/A
12:20 PM82 °FPassing clouds.3 mph51%30.09 "HgN/A
11:50 AM81 °FSunny.5 mph54%30.09 "Hg10 mi
11:20 AM81 °FPassing clouds.9 mph51%30.09 "HgN/A
10:50 AM79 °FPassing clouds.10 mph54%30.09 "HgN/A
10:20 AM79 °FPassing clouds.9 mph58%30.09 "HgN/A
9:50 AM77 °FPassing clouds.7 mph65%30.09 "HgN/A
9:20 AM73 °FSunny.6 mph74%30.09 "Hg10 mi
8:50 AM68 °FPassing clouds.3 mph94%30.09 "HgN/A
8:20 AM64 °FSunny.1 mph100%30.09 "Hg10 mi
7:50 AM63 °FSunny.1 mph100%30.09 "Hg10 mi
7:20 AM61 °FClear.1 mph100%30.07 "Hg10 mi
6:50 AM55 °FFog.1 mph100%30.07 "Hg6 mi
6:20 AM54 °FFog.1 mph100%30.07 "Hg6 mi
5:50 AM54 °FFog.1 mph100%30.07 "HgN/A
5:20 AM54 °FFog.2 mph100%30.07 "HgN/A
4:50 AM55 °FFog.1 mph100%30.07 "HgN/A
4:20 AM54 °FLight fog.1 mph100%30.07 "HgN/A
3:50 AM55 °FRain. Overcast.No wind100%30.07 "HgN/A
3:20 AM55 °FCool.2 mph100%30.07 "HgN/A
2:50 AM57 °FFog.1 mph100%30.07 "HgN/A
2:20 AM57 °FFog.No wind100%30.07 "HgN/A
1:50 AM57 °FFog.No wind100%30.07 "HgN/A
1:20 AM59 °FClear.No wind100%30.07 "Hg10 mi
12:50 AM61 °FClear.1 mph100%30.07 "Hg10 mi
12:20 AM61 °FClear.No wind100%30.07 "Hg10 mi
11:50 PM
Sat, Aug 27
61 °FClear.1 mph100%30.07 "Hg10 mi
11:20 PM63 °FClear.No wind94%30.07 "Hg10 mi
10:50 PM64 °FClear.1 mph88%30.07 "Hg10 mi
10:20 PM66 °FClear.2 mph83%30.07 "Hg10 mi
9:50 PM66 °FClear.1 mph83%30.07 "Hg10 mi
9:20 PM68 °FClear.2 mph78%30.09 "Hg10 mi
8:50 PM70 °FSunny.2 mph73%30.07 "Hg10 mi
8:20 PM72 °FSunny.3 mph69%30.07 "Hg10 mi
7:50 PM79 °FSunny.5 mph51%30.07 "Hg10 mi
7:20 PM81 °FPassing clouds.6 mph45%30.07 "HgN/A
6:50 PM82 °FSunny.6 mph42%30.07 "Hg10 mi
6:20 PM84 °FSunny.7 mph43%30.07 "Hg10 mi
5:50 PM84 °FSunny.6 mph43%30.07 "Hg10 mi
5:20 PM84 °FPassing clouds.5 mph43%30.09 "HgN/A
4:50 PM84 °FPassing clouds.6 mph45%30.09 "HgN/A
4:20 PM84 °FPassing clouds.6 mph43%30.09 "HgN/A
3:50 PM84 °FSunny.3 mph45%30.09 "Hg10 mi
3:20 PM84 °FPassing clouds.6 mph43%30.09 "HgN/A
2:50 PM84 °FPassing clouds.6 mph45%30.12 "HgN/A
2:20 PM82 °FPassing clouds.6 mph42%30.12 "HgN/A
Weather by CustomWeather, © 2016

See weather overviewHow to use our weather pages